Time,TemperatureF,DewpointF,PressureIn,WindDirection,WindDirectionDegrees,WindSpeedMPH,WindSpeedGustMPH,Humidity,HourlyPrecipIn,Conditions,Clouds,dailyrainin,SoftwareType,DateUTC
2013-04-23 00:01:00,41.7,37.0,30.48,ESE,103,5.0,7.0,82,0.00,,,0.00,weatherlink.com 1.10,2013-04-23 04:01:00,
2013-04-23 00:16:00,41.6,37.0,30.47,SE,128,3.0,7.0,82,0.00,,,0.00,weatherlink.com 1.10,2013-04-23 04:16:00,
2013-04-23 00:31:00,41.6,37.0,30.47,East,100,3.0,6.0,82,0.00,,,0.00,weatherlink.com 1.10,2013-04-23 04:31:00,
2013-04-23 00:47:00,41.5,36.0,30.47,ESE,112,2.0,7.0,82,0.00,,,0.00,weatherlink.com 1.10,2013-04-23 04:47:00,
2013-04-23 01:02:00,41.5,36.0,30.46,ESE,117,4.0,10.0,81,0.00,,,0.00,weatherlink.com 1.10,2013-04-23 05:02:00,
2013-04-23 01:17:00,41.5,36.0,30.46,East,84,5.0,8.0,80,0.00,,,0.00,weatherlink.com 1.10,2013-04-23 05:17:00,
2013-04-23 01:32:00,41.4,36.0,30.46,ESE,119,1.0,8.0,80,0.00,,,0.00,weatherlink.com 1.10,2013-04-23 05:32:00,
2013-04-23 01:47:00,41.5,36.0,30.45,East,101,3.0,7.0,80,0.00,,,0.00,weatherlink.com 1.10,2013-04-23 05:47:00,
2013-04-23 02:02:00,41.5,36.0,30.44,East,86,0.0,6.0,80,0.00,,,0.00,weatherlink.com 1.10,2013-04-23 06:02:00,
2013-04-23 02:17:00,41.3,35.0,30.43,East,92,6.0,7.0,78,0.00,,,0.00,weatherlink.com 1.10,2013-04-23 06:17:00,
2013-04-23 02:32:00,40.9,34.0,30.43,ENE,72,2.0,6.0,76,0.00,,,0.00,weatherlink.com 1.10,2013-04-23 06:32:00,
2013-04-23 02:47:00,40.5,34.0,30.43,ENE,70,3.0,8.0,76,0.00,,,0.00,weatherlink.com 1.10,2013-04-23 06:47:00,
2013-04-23 03:02:00,40.1,33.0,30.42,NE,48,1.0,5.0,76,0.00,,,0.00,weatherlink.com 1.10,2013-04-23 07:02:00,
2013-04-23 03:17:00,39.6,33.0,30.41,NNE,28,0.0,6.0,78,0.00,,,0.00,weatherlink.com 1.10,2013-04-23 07:17:00,
2013-04-23 03:32:00,39.4,34.0,30.41,NE,35,5.0,6.0,80,0.00,,,0.00,weatherlink.com 1.10,2013-04-23 07:32:00,
2013-04-23 03:47:00,38.9,33.0,30.41,NE,48,2.0,7.0,79,0.00,,,0.00,weatherlink.com 1.10,2013-04-23 07:47:00,
2013-04-23 04:02:00,38.5,32.0,30.41,NE,55,5.0,8.0,78,0.00,,,0.00,weatherlink.com 1.10,2013-04-23 08:02:00,
2013-04-23 04:17:00,38.2,32.0,30.41,ENE,64,2.0,4.0,78,0.00,,,0.00,weatherlink.com 1.10,2013-04-23 08:17:00,
2013-04-23 04:32:00,37.9,32.0,30.40,ENE,63,2.0,3.0,79,0.00,,,0.00,weatherlink.com 1.10,2013-04-23 08:32:00,
2013-04-23 04:47:00,37.7,32.0,30.40,NNE,33,0.0,4.0,79,0.00,,,0.00,weatherlink.com 1.10,2013-04-23 08:47:00,
2013-04-23 05:02:00,37.6,32.0,30.40,NE,36,4.0,5.0,79,0.00,,,0.00,weatherlink.com 1.10,2013-04-23 09:02:00,
2013-04-23 05:17:00,37.9,32.0,30.40,NE,43,4.0,7.0,79,0.00,,,0.00,weatherlink.com 1.10,2013-04-23 09:17:00,
2013-04-23 05:32:00,37.9,32.0,30.39,NE,54,2.0,6.0,79,0.00,,,0.00,weatherlink.com 1.10,2013-04-23 09:32:00,
2013-04-23 05:47:00,37.8,32.0,30.39,NE,36,3.0,6.0,79,0.00,,,0.00,weatherlink.com 1.10,2013-04-23 09:47:00,
2013-04-23 06:02:00,37.7,32.0,30.39,NE,35,3.0,8.0,79,0.00,,,0.00,weatherlink.com 1.10,2013-04-23 10:02:00,
2013-04-23 06:17:00,37.8,32.0,30.39,NNE,14,6.0,9.0,79,0.00,,,0.00,weatherlink.com 1.10,2013-04-23 10:17:00,
2013-04-23 06:32:00,37.8,32.0,30.39,ENE,59,4.0,8.0,79,0.00,,,0.00,weatherlink.com 1.10,2013-04-23 10:32:00,
2013-04-23 06:47:00,37.8,32.0,30.39,NE,38,5.0,8.0,79,0.00,,,0.00,weatherlink.com 1.10,2013-04-23 10:47:00,
2013-04-23 07:02:00,37.9,32.0,30.38,NNE,30,5.0,8.0,79,0.00,,,0.00,weatherlink.com 1.10,2013-04-23 11:02:00,
2013-04-23 07:17:00,38.0,32.0,30.38,NE,42,3.0,7.0,79,0.00,,,0.00,weatherlink.com 1.10,2013-04-23 11:17:00,
2013-04-23 07:32:00,38.3,32.0,30.38,NE,53,3.0,7.0,79,0.00,,,0.00,weatherlink.com 1.10,2013-04-23 11:32:00,
2013-04-23 07:47:00,38.3,32.0,30.38,NE,55,5.0,9.0,79,0.00,,,0.00,weatherlink.com 1.10,2013-04-23 11:47:00,
2013-04-23 08:03:00,38.4,32.0,30.37,NE,38,5.0,8.0,78,0.00,,,0.00,weatherlink.com 1.10,2013-04-23 12:03:00,
2013-04-23 08:18:00,38.7,33.0,30.37,NE,49,4.0,9.0,79,0.00,,,0.00,weatherlink.com 1.10,2013-04-23 12:18:00,
2013-04-23 08:33:00,39.0,33.0,30.37,NNE,26,6.0,10.0,78,0.00,,,0.00,weatherlink.com 1.10,2013-04-23 12:33:00,
2013-04-23 08:48:00,39.0,33.0,30.37,ENE,57,5.0,8.0,79,0.00,,,0.00,weatherlink.com 1.10,2013-04-23 12:48:00,
2013-04-23 09:03:00,39.3,33.0,30.36,ENE,61,1.0,6.0,79,0.00,,,0.00,weatherlink.com 1.10,2013-04-23 13:03:00,
2013-04-23 09:18:00,39.8,34.0,30.36,NNE,26,5.0,7.0,79,0.00,,,0.00,weatherlink.com 1.10,2013-04-23 13:18:00,
2013-04-23 09:33:00,40.1,34.0,30.36,NNE,22,6.0,6.0,79,0.00,,,0.00,weatherlink.com 1.10,2013-04-23 13:33:00,
2013-04-23 09:48:00,40.5,34.0,30.36,NNE,32,1.0,6.0,78,0.00,,,0.00,weatherlink.com 1.10,2013-04-23 13:48:00,
2013-04-23 10:03:00,40.8,35.0,30.35,NE,44,4.0,7.0,79,0.00,,,0.00,weatherlink.com 1.10,2013-04-23 14:03:00,
2013-04-23 10:18:00,41.2,35.0,30.35,NE,40,4.0,9.0,79,0.00,,,0.00,weatherlink.com 1.10,2013-04-23 14:18:00,
2013-04-23 10:33:00,41.2,36.0,30.35,NE,48,6.0,11.0,80,0.00,,,0.00,weatherlink.com 1.10,2013-04-23 14:33:00,
2013-04-23 10:48:00,41.6,36.0,30.35,NE,43,4.0,8.0,80,0.00,,,0.00,weatherlink.com 1.10,2013-04-23 14:48:00,
2013-04-23 11:03:00,41.5,37.0,30.34,NE,36,2.0,7.0,84,0.00,,,0.00,weatherlink.com 1.10,2013-04-23 15:03:00,
2013-04-23 11:18:00,41.3,38.0,30.33,NE,42,5.0,7.0,88,0.00,,,0.00,weatherlink.com 1.10,2013-04-23 15:18:00,
2013-04-23 11:33:00,40.9,38.0,30.33,NE,46,0.0,7.0,90,0.00,,,0.00,weatherlink.com 1.10,2013-04-23 15:33:00,
2013-04-23 11:48:00,41.1,39.0,30.32,NNE,30,1.0,7.0,91,0.00,,,0.00,weatherlink.com 1.10,2013-04-23 15:48:00,
2013-04-23 12:03:00,40.9,39.0,30.32,NNE,28,0.0,6.0,91,0.00,,,0.00,weatherlink.com 1.10,2013-04-23 16:03:00,
2013-04-23 12:18:00,41.2,39.0,30.31,ENE,59,4.0,9.0,91,0.00,,,0.00,weatherlink.com 1.10,2013-04-23 16:18:00,
2013-04-23 12:33:00,41.8,39.0,30.30,ENE,67,4.0,10.0,90,0.00,,,0.00,weatherlink.com 1.10,2013-04-23 16:33:00,
2013-04-23 12:48:00,42.5,39.0,30.29,NNE,32,0.0,6.0,88,0.00,,,0.00,weatherlink.com 1.10,2013-04-23 16:48:00,
2013-04-23 13:03:00,42.9,39.0,30.28,North,10,6.0,9.0,87,0.00,,,0.00,weatherlink.com 1.10,2013-04-23 17:03:00,
2013-04-23 13:18:00,43.5,39.0,30.28,NE,42,7.0,8.0,85,0.00,,,0.00,weatherlink.com 1.10,2013-04-23 17:18:00,
2013-04-23 13:33:00,43.6,39.0,30.27,NNE,29,5.0,10.0,85,0.00,,,0.00,weatherlink.com 1.10,2013-04-23 17:33:00,
2013-04-23 13:48:00,44.3,40.0,30.27,NNE,29,4.0,7.0,84,0.00,,,0.00,weatherlink.com 1.10,2013-04-23 17:48:00,
2013-04-23 14:03:00,44.2,39.0,30.26,NNE,27,6.0,8.0,83,0.00,,,0.00,weatherlink.com 1.10,2013-04-23 18:03:00,
2013-04-23 14:18:00,44.9,40.0,30.25,NNE,27,5.0,6.0,83,0.00,,,0.00,weatherlink.com 1.10,2013-04-23 18:18:00,
2013-04-23 14:33:00,45.6,40.0,30.25,NNE,28,2.0,9.0,81,0.00,,,0.00,weatherlink.com 1.10,2013-04-23 18:33:00,
2013-04-23 14:48:00,46.1,40.0,30.24,NNE,26,3.0,8.0,80,0.00,,,0.00,weatherlink.com 1.10,2013-04-23 18:48:00,
2013-04-23 15:18:00,46.6,40.0,30.22,NE,49,4.0,9.0,79,0.00,,,0.00,weatherlink.com 1.10,2013-04-23 19:18:00,
2013-04-23 15:33:00,47.1,41.0,30.22,ENE,65,3.0,8.0,79,0.00,,,0.00,weatherlink.com 1.10,2013-04-23 19:33:00,
2013-04-23 15:48:00,47.2,41.0,30.22,NE,39,4.0,10.0,78,0.00,,,0.00,weatherlink.com 1.10,2013-04-23 19:48:00,
2013-04-23 16:03:00,47.6,41.0,30.21,NE,43,0.0,7.0,78,0.00,,,0.00,weatherlink.com 1.10,2013-04-23 20:03:00,
2013-04-23 16:18:00,48.1,41.0,30.22,NNE,13,7.0,9.0,77,0.00,,,0.00,weatherlink.com 1.10,2013-04-23 20:18:00,
2013-04-23 16:33:00,48.0,41.0,30.22,NE,44,5.0,8.0,76,0.00,,,0.00,weatherlink.com 1.10,2013-04-23 20:33:00,
2013-04-23 16:48:00,48.4,41.0,30.22,NE,34,3.0,5.0,76,0.00,,,0.00,weatherlink.com 1.10,2013-04-23 20:48:00,
2013-04-23 17:04:00,48.6,41.0,30.22,NNE,28,1.0,7.0,76,0.00,,,0.00,weatherlink.com 1.10,2013-04-23 21:04:00,
2013-04-23 17:19:00,48.7,41.0,30.21,NE,41,2.0,8.0,75,0.00,,,0.00,weatherlink.com 1.10,2013-04-23 21:19:00,
2013-04-23 17:34:00,49.0,41.0,30.20,North,360,4.0,8.0,75,0.00,,,0.00,weatherlink.com 1.10,2013-04-23 21:34:00,
2013-04-23 17:49:00,49.4,42.0,30.19,NE,37,4.0,7.0,75,0.00,,,0.00,weatherlink.com 1.10,2013-04-23 21:49:00,
2013-04-23 18:04:00,50.3,42.0,30.17,NNE,16,2.0,10.0,73,0.00,,,0.00,weatherlink.com 1.10,2013-04-23 22:04:00,
2013-04-23 18:19:00,50.5,42.0,30.17,NE,39,3.0,7.0,72,0.00,,,0.00,weatherlink.com 1.10,2013-04-23 22:19:00,
2013-04-23 18:34:00,50.5,42.0,30.17,NE,35,3.0,8.0,72,0.00,,,0.00,weatherlink.com 1.10,2013-04-23 22:34:00,
2013-04-23 18:49:00,50.3,42.0,30.17,NNE,17,4.0,6.0,72,0.00,,,0.00,weatherlink.com 1.10,2013-04-23 22:49:00,
2013-04-23 19:04:00,50.3,42.0,30.17,NE,39,0.0,5.0,73,0.00,,,0.00,weatherlink.com 1.10,2013-04-23 23:04:00,
2013-04-23 19:19:00,50.4,42.0,30.17,NNE,13,2.0,5.0,72,0.00,,,0.00,weatherlink.com 1.10,2013-04-23 23:19:00,
2013-04-23 19:34:00,50.2,42.0,30.16,NNE,12,4.0,5.0,73,0.00,,,0.00,weatherlink.com 1.10,2013-04-23 23:34:00,
2013-04-23 19:49:00,49.8,41.0,30.15,NE,53,0.0,5.0,73,0.00,,,0.00,weatherlink.com 1.10,2013-04-23 23:49:00,
2013-04-23 20:04:00,49.4,41.0,30.14,NE,56,2.0,4.0,74,0.00,,,0.00,weatherlink.com 1.10,2013-04-24 00:04:00,
2013-04-23 20:19:00,49.0,41.0,30.14,NE,55,1.0,4.0,75,0.00,,,0.00,weatherlink.com 1.10,2013-04-24 00:19:00,
2013-04-23 20:34:00,48.7,41.0,30.13,NE,42,0.0,3.0,76,0.00,,,0.00,weatherlink.com 1.10,2013-04-24 00:34:00,
2013-04-23 20:49:00,48.2,41.0,30.12,NE,42,0.0,0.0,77,0.00,,,0.00,weatherlink.com 1.10,2013-04-24 00:49:00,
2013-04-23 21:04:00,47.8,41.0,30.12,NE,49,3.0,3.0,78,0.00,,,0.00,weatherlink.com 1.10,2013-04-24 01:04:00,
2013-04-23 21:19:00,47.6,41.0,30.13,NE,40,0.0,3.0,79,0.00,,,0.00,weatherlink.com 1.10,2013-04-24 01:19:00,
2013-04-23 21:34:00,47.5,41.0,30.13,ENE,57,0.0,5.0,79,0.00,,,0.00,weatherlink.com 1.10,2013-04-24 01:34:00,
2013-04-23 21:49:00,47.1,41.0,30.13,ENE,57,0.0,1.0,80,0.00,,,0.00,weatherlink.com 1.10,2013-04-24 01:49:00,
2013-04-23 22:04:00,46.7,41.0,30.13,ENE,57,0.0,0.0,80,0.00,,,0.00,weatherlink.com 1.10,2013-04-24 02:04:00,
2013-04-23 22:19:00,46.1,41.0,30.12,ENE,57,0.0,1.0,82,0.00,,,0.00,weatherlink.com 1.10,2013-04-24 02:19:00,
2013-04-23 22:34:00,45.7,41.0,30.11,ENE,57,0.0,0.0,83,0.00,,,0.00,weatherlink.com 1.10,2013-04-24 02:34:00,
2013-04-23 22:49:00,44.9,40.0,30.11,ENE,57,0.0,2.0,84,0.00,,,0.00,weatherlink.com 1.10,2013-04-24 02:49:00,
2013-04-23 23:04:00,44.9,40.0,30.10,NNE,32,0.0,3.0,84,0.00,,,0.00,weatherlink.com 1.10,2013-04-24 03:04:00,
2013-04-23 23:19:00,44.7,40.0,30.10,NNE,32,0.0,0.0,84,0.00,,,0.00,weatherlink.com 1.10,2013-04-24 03:19:00,
2013-04-23 23:34:00,44.6,40.0,30.11,NNE,32,0.0,1.0,84,0.00,,,0.00,weatherlink.com 1.10,2013-04-24 03:34:00,
2013-04-23 23:49:00,44.2,40.0,30.10,NNE,32,0.0,0.0,84,0.00,,,0.00,weatherlink.com 1.10,2013-04-24 03:49:00,